MDT,Max TemperatureF,Mean TemperatureF,Min TemperatureF,Max Dew PointF,MeanDew PointF,Min DewpointF,Max Humidity, Mean Humidity, Min Humidity, Max Sea Level PressureIn, Mean Sea Level PressureIn, Min Sea Level PressureIn, Max VisibilityMiles, Mean VisibilityMiles, Min VisibilityMiles, Max Wind SpeedMPH, Mean Wind SpeedMPH, Max Gust SpeedMPH,PrecipitationIn, CloudCover, Events, WindDirDegrees
2011-10-1,73,53,32,43,33,26,78,52,25,30.01,29.91,29.84,,,,20,5,29,0.00,,,167
2011-10-2,69,52,35,39,31,25,92,56,20,30.01,29.94,29.88,,,,18,4,26,0.00,,,157
2011-10-3,73,52,30,42,32,25,85,54,23,29.97,29.85,29.67,,,,25,7,40,0.00,,,154
2011-10-4,53,47,41,42,40,37,96,82,68,29.68,29.62,29.54,,,,12,4,18,0.11,,,196
2011-10-5,45,39,33,40,35,32,100,92,83,29.52,29.46,29.40,,,,12,1,18,1.39,,,324
2011-10-6,37,34,31,32,31,29,100,88,76,29.75,29.60,29.51,,,,13,5,20,0.11,,,325
2011-10-7,43,38,33,36,33,31,100,81,62,30.06,29.89,29.76,,,,10,2,15,0.01,,,349
2011-10-8,51,38,25,34,29,26,100,71,41,30.22,30.15,30.06,,,,9,2,13,0.00,,,225
2011-10-9,54,39,23,31,27,23,92,64,35,30.20,30.08,29.91,,,,8,2,10,0.00,,,177
2011-10-10,52,39,26,37,31,25,92,65,38,29.93,29.83,29.73,,,,16,4,26,0.06,,,161
2011-10-11,44,37,30,37,35,30,100,88,76,30.11,29.88,29.70,,,,8,4,16,0.77,,,149
2011-10-12,51,37,23,33,26,22,100,65,30,30.25,30.17,30.11,,,,10,2,15,0.00,,,175
2011-10-13,58,42,25,33,26,20,92,58,23,30.17,30.08,29.99,,,,12,2,16,0.00,,,178
2011-10-14,63,51,38,38,35,32,79,57,34,30.02,29.94,29.87,,,,13,2,21,0.00,,,202
2011-10-15,63,47,31,38,34,31,96,65,34,30.01,29.93,29.88,,,,15,3,26,0.00,,,234
2011-10-16,44,37,29,42,36,30,100,90,79,30.15,29.98,29.91,,,,14,4,22,0.46,,,201
2011-10-17,50,38,25,32,28,23,100,68,36,30.45,30.34,30.18,,,,7,2,9,0.00,,,160
2011-10-18,60,41,21,31,25,18,100,60,19,30.51,30.37,30.23,,,,7,1,8,0.00,,,95
2011-10-19,53,37,21,31,25,19,92,66,39,30.21,30.09,29.97,,,,7,2,10,0.00,,,171
2011-10-20,59,41,22,34,27,20,92,63,33,30.20,30.11,30.01,,,,12,2,16,0.00,,,185
2011-10-21,58,43,27,34,29,26,92,64,35,30.25,30.17,30.06,,,,10,2,16,0.00,,,206
2011-10-22,55,39,23,33,29,22,92,67,41,30.31,30.25,30.19,,,,13,3,18,0.00,,,191
2011-10-23,60,45,29,37,30,28,92,63,33,30.23,30.11,29.98,,,,10,3,16,0.00,,,184
2011-10-24,51,36,21,33,24,15,92,60,28,30.09,29.96,29.89,,,,15,3,22,0.00,,,303
2011-10-25,40,27,14,19,15,9,88,59,29,30.26,30.18,30.05,,,,9,2,14,0.00,,,324
2011-10-26,44,25,6,13,6,-7,91,52,12,30.41,30.29,30.18,,,,7,1,10,0.00,,,323
2011-10-27,47,30,12,12,9,3,84,51,17,30.29,30.19,30.09,,,,13,2,18,0.00,,,167
2011-10-28,52,30,8,14,7,-5,83,47,10,30.42,30.26,30.07,,,,10,3,14,0.00,,,159
2011-10-29,50,36,22,28,22,5,81,51,20,30.25,30.09,29.97,,,,16,6,30,0.00,,,278
2011-10-30,59,37,15,31,22,13,92,61,30,30.41,30.24,30.09,,,,10,3,16,0.00,,,147
2011-10-31,47,35,22,39,29,14,100,63,26,30.05,29.99,29.94,,,,13,3,21,0.27,,,171